Regional Weather Roundup
Issued by NWS

Home | Current Version | Previous Version | Text Only | Print | Product List | Glossary Off
Versions: 1 2 3 4 5 6 7 8 9 10 11 12 13 14 15 16 17 18 19 20 21 22 23 24 25 26 27 28 29 30 31 32 33 34 35 36 37 38 39 40 41 42 43 44 45 46 47 48 49 50

000
ASUS43 KDTX 032010
RWRMI
MICHIGAN HOURLY REGIONAL WEATHER ROUNDUP
NATIONAL WEATHER SERVICE DETROIT/PONTIAC MI
400 PM EDT MON AUG 03 2015

NOTE: "FAIR" INDICATES FEW OR NO CLOUDS BELOW 12,000 FEET WITH NO
SIGNIFICANT WEATHER AND/OR OBSTRUCTION TO VISIBILITY.

MIZ047>049-052>055-059>063-066>070-074>076-081>083-032100-
SOUTHEAST LOWER MICHIGAN

CITY           SKY/WX    TMP DP  RH WIND       PRES   REMARKS
ADRIAN         MOSUNNY   81  60  48 W16       29.80F
ALMA           CLOUDY    78  52  40 W12       29.79S
ANN ARBOR      MOSUNNY   80  58  46 W20       29.78S
BAD AXE        MOSUNNY   74  57  56 NW9       29.77S
CARO           SUNNY     77  57  50 NW12      29.77S
DETROIT CITY   MOSUNNY   76  60  57 NW12G17   29.78R
DETROIT        PTSUNNY   84  58  40 SW14      29.78F
FLINT          PTSUNNY   76  62  62 SW8       29.79S
GROSSE ILE     MOSUNNY   81  61  50 W10G17    29.76F
HILLSDALE      MOSUNNY   79  56  45 W20G25    29.83S
HOWELL         PTSUNNY   75  59  57 N7G16     29.80S

CITY           SKY/WX    TMP DP  RH WIND       PRES   REMARKS
JACKSON        MOSUNNY   78  55  44 W15G24    29.81R
LAMBERTVILLE   MOSUNNY   83  61  47 W12G18    29.80S
LANSING        MOSUNNY   79  53  40 W15G24    29.80S
LAPEER         PTSUNNY   77  59  52 W8        29.78F
MASON          PTSUNNY   75  57  53 W12       29.80F
MONROE         SUNNY     80  64  57 W10       29.77F
MT. CLEMENS    HVY RAIN  68  64  88 NW13      29.81R
PONTIAC        PTSUNNY   71  65  81 NW6       29.80F
PORT HURON     LGT RAIN  70  63  78 NW5       29.79S
TRI CITIES     MOSUNNY   79  52  38 W13       29.78S
MIDLAND        PTSUNNY   79  50  36 NW10G17   29.76S
TROY           MOSUNNY   72  64  76 N10G17    29.81S
SAGINAW HB     CLOUDY    77  52  41 W13       29.77S
$$
MIZ043>046-050>051-056>058-064>065-071>073-077>080-032100-
SOUTHWEST LOWER MICHIGAN

CITY           SKY/WX    TMP DP  RH WIND       PRES   REMARKS
BATTLE CREEK     N/A    N/A N/A N/A MISG      29.84R
BENTON HARBOR  SUNNY     76  57  51 W10       29.86S
BIG RAPIDS     MOSUNNY   77  44  31 W13       29.79S
COLDWATER      MOSUNNY   77  51  39 NW15G22   29.83S
FREMONT        FAIR      75  52  43 W9G17     29.81S
HOLLAND        SUNNY     76  54  46 W16G24    29.85R
GRAND RAPIDS   MOSUNNY   77  49  37 W20       29.82S
IONIA          FAIR      79  48  34 W14G22    29.80S
KALAMAZOO      SUNNY     79  50  36 NW16G24   29.84R
LUDINGTON      SUNNY     76  54  46 SW9       29.81F
MARSHALL       MOSUNNY   79  54  42 W13G21    29.82S
MOUNT PLEASANT PTSUNNY   78  50  37 W9        29.78S
MUSKEGON       MOSUNNY   76  56  49 W13G21    29.83R
SOUTH HAVEN    SUNNY     75  55  49 W10       29.85S
$$
MIZ016>042-032100-
NORTHERN LOWER MICHIGAN

CITY           SKY/WX    TMP DP  RH WIND       PRES   REMARKS
ALPENA         CLOUDY    73  51  46 W7G17     29.75R
BEAVER ISLAND  CLOUDY    66  55  67 W3        29.78S
BELLAIRE       SUNNY     73  49  44 W5        29.78S
CADILLAC       MOSUNNY   74  49  41 W13       29.80F
CHARLEVOIX     CLOUDY    68  54  60 W9        29.81R
FRANKFORT      CLOUDY    70  56  62 SW6       29.80S
GAYLORD        PTSUNNY   72  48  42 W15G24    29.78R
GRAYLING       CLOUDY    71  51  49 W9G16     29.79S
HARBOR SPRINGS CLOUDY    68  55  62 W7        29.77S
HOUGHTON LAKE  CLOUDY    71  53  52 W10       29.79S
MANISTEE       SUNNY     72  50  46 W9        29.81F
OSCODA         CLOUDY    75  54  49 W10G21    29.74S
PELLSTON       CLOUDY    69  52  54 NW10G22   29.77R
ROGERS CITY    PTSUNNY   69  58  66 NW9       29.75R
TRAVERSE CITY  PTSUNNY   76  47  35 W17       29.76S
$$
MIZ007>008-015-032100-
EASTERN UPPER MICHIGAN

CITY           SKY/WX    TMP DP  RH WIND       PRES   REMARKS
KINROSS        CLOUDY    61  55  82 W9G22     29.75R
MACKINAC ISLAN CLOUDY    65  55  70 W12G17    29.76R
NEWBERRY       CLOUDY    66  54  66 W9        29.75S
S. S. MARIE    LGT RAIN  65  53  65 W10G18    29.74R
MUNISING         N/A     67  55  65 N13G22    29.76S
$$
MIZ004>006-011>014-085-032100-
CENTRAL UPPER MICHIGAN

CITY           SKY/WX    TMP DP  RH WIND       PRES   REMARKS
MANISTIQUE     CLOUDY    66  57  72 S5        29.76S
ESCANABA       CLOUDY    63  57  82 N3        29.77R
MENOMINEE      CLOUDY    72  50  46 NW10G18   29.76S
SAWYER-GWINN   PTSUNNY   68  52  56 NW18      29.77S
$$
MIZ001>003-009>011-084-032100-
WESTERN UPPER MICHIGAN

CITY           SKY/WX    TMP DP  RH WIND       PRES   REMARKS
IRON MOUNTAIN  CLOUDY    68  52  56 NW15      29.78F
HOUGHTON       CLOUDY    66  51  58 W18       29.77S
COPPER HARBOR    N/A     65  52  62 VRB6      29.74S
IRONWOOD       CLOUDY    66  54  63 NW15G23   29.81S
$$

ABBREVIATIONS USED IN REMARKS
   TC - TEMPERATURE IN CELSIUS
  WCI - WIND CHILL INDEX
   HX - HEAT INDEX
  VSB - VISIBILITY




USA.gov is the U.S. government's official web portal to all federal, state and local government web resources and services.